Regional Weather Roundup
Issued by NWS

Home | Current Version | Previous Version | Text Only | Print | Product List | Glossary Off
Versions: 1 2 3 4 5 6 7 8 9 10 11 12 13 14 15 16 17 18 19 20 21 22 23 24 25 26 27 28 29 30 31 32 33 34 35 36 37 38 39 40 41 42 43 44 45 46 47 48

000
ASUS45 KTFX 192310
RWRMT
MONTANA REGIONAL WEATHER ROUNDUP
NATIONAL WEATHER SERVICE GREAT FALLS MT
500 PM MDT TUE SEP 19 2017

NOTE: "FAIR" INDICATES FEW OR NO CLOUDS BELOW 12000 FEET WITH NO
SIGNIFICANT WEATHER AND/OR OBSTRUCTIONS TO VISIBILITY.

MTZ001>007-043-200000-
WEST OF THE DIVIDE

CITY           SKY/WX    TMP DP  RH WIND       PRES   REMARKS
KALISPELL      CLOUDY    49  40  71 SE7       29.67S
MISSOULA       CLOUDY    45  38  76 S9        29.74R
BUTTE          CLOUDY    44  32  62 VRB3      29.74R
MULLAN PASS    SNOW      31  30  96 VRB5      29.70S VSB 1/4
ANACONDA         N/A     48  25  40 W12       29.71F
DEER LODGE       N/A     45  30  57 N5        29.74F
HAMILTON         N/A     46  34  61 S15       29.75S
LIBBY            N/A     48  45  87 CALM      29.67S
PLAINS           N/A     54  37  52 SW6       29.74S
$$

MTZ008-052>055-200000-
SOUTHWEST MONTANA

CITY           SKY/WX    TMP DP  RH WIND       PRES   REMARKS
BOZEMAN        CLOUDY    46  38  73 E6        29.75R
DILLON         CLOUDY    46  31  55 SW16      29.74S
W YELLOWSTONE  LGT SNOW  32  32 100 SW8       29.81S VSB 1   WCI  25
ENNIS          CLOUDY    46  30  53 S12G18    29.79R
THREE FORKS      N/A     50  33  51 SW12      29.75R
TWIN BRIDGES     N/A     49  28  44 CALM      29.76S
$$

MTZ009-010-012-014-046-048-049-054-200000-
EAST SLOPES AND CENTRAL MONTANA

CITY           SKY/WX    TMP DP  RH WIND       PRES   REMARKS
CUT BANK       PTSUNNY   52  30  43 SW21G28   29.59S
GREAT FALLS    CLOUDY    53  28  38 SW18      29.64R
MALMSTROM AFB  CLOUDY    54  29  37 SW22G30   29.64R
HELENA         CLOUDY    52  33  48 W12       29.71R
BOWMANS CRNR     N/A     44  32  62 SW17      29.65R
CHOTEAU          N/A     54  28  37 SW15      29.62F
FAIRFIELD        N/A     51  30  44 SW17      29.62R
POWER            N/A     53  27  36 SW15G22   29.62R
RAYNESFORD     PTSUNNY   53  25  33 W18       29.64R
$$

MTZ011-013-016-021-045-047-050-051-200000-
NORTH CENTRAL MONTANA

CITY           SKY/WX    TMP DP  RH WIND       PRES   REMARKS
HAVRE          SUNNY     61  30  31 SW15      29.56F
LEWISTOWN      PTSUNNY   53  28  38 NW17      29.64R
N BAR RANCH    PTSUNNY   55  23  28 W7G16     29.66S
CHINOOK          N/A     59  28  31 W8        29.56F
DENTON           N/A     57  25  29 W18       29.59S
GEYSER           N/A     55  26  32 W20G29    29.63R
GRASS RANGE    PTSUNNY   56  26  31 W12       29.60S
JUDITH GAP     PTSUNNY   51  27  38 W12       29.65R
WINIFRED         N/A     56  28  34 NW13      29.61S
$$

MTZ017>020-022>027-061-062-200000-
NORTHEAST MONTANA

CITY           SKY/WX    TMP DP  RH WIND       PRES   REMARKS
GLASGOW          N/A     58  35  42 W17       29.55S
JORDAN           N/A     58  32  37 W13       29.60
SIDNEY         LGT RAIN  55  42  61 W10       29.56R
WOLF POINT     CLOUDY    59  39  47 W20G25    29.57R
MALTA          MOSUNNY   61  30  31 W15G24    29.58S
PLENTYWOOD       N/A     57  43  58 W12       29.50R
POPLAR           N/A     57  39  51 W16G22    29.55R
SCOBEY           N/A     56  37  48 W21       29.55R
$$

MTZ028>42-056>058-200000-
SOUTHCENTRAL AND SOUTHEAST MONTANA

CITY           SKY/WX    TMP DP  RH WIND       PRES   REMARKS
BAKER          LGT RAIN  49  45  86 W12G24    29.63R
BILLINGS       MOSUNNY   59  30  33 NW17      29.66R
LIVINGSTON     LGT RAIN  47  36  65 W23G31    29.70R
MILES CITY     MOSUNNY   56  36  47 W12       29.64R
BIG TIMBER     MOSUNNY   52  28  40 W14G20    29.70S
EKALAKA          N/A     47  40  76 W13       29.68R
HARLOWTON      PTSUNNY   51  31  46 MISG      29.66S
LAUREL           N/A     59  27  29 NW20      29.67S
ROUNDUP          N/A     55  35  46 E1        29.60R
$$

REGIONAL REPORTS...DAKOTAS

CITY           SKY/WX    TMP DP  RH WIND       PRES   REMARKS
WILLISTON      CLOUDY    61  40  45 W20G26    29.51R
MINOT          CLOUDY    65  53  65 W9        29.45R
DICKINSON      LGT RAIN  54  50  86 SW9       29.57R
BEACH          DRIZZLE   52  48  87 W9G15     29.64R
CROSBY         PTSUNNY   61  46  59 W13G18    29.48R
TIOGA          PTSUNNY   59  50  72 W14       29.51R
WATFORD CITY   DRIZZLE   59  46  63 W14       29.53R
BISMARCK       PTSUNNY   65  47  52 NW12G22   29.46R
GRAND FORKS    TSTM      69  66  90 SE16      29.53F
FARGO          CLOUDY    73  64  73 SE21G31   29.42F
BUFFALO SD       N/A     50  47  89 W16       29.59R
RAPID CITY     LGT RAIN  61  48  63 W6        29.64R
$$

REGIONAL REPORTS...WYOMING/IDAHO/WASHINGTON

CITY           SKY/WX    TMP DP  RH WIND       PRES   REMARKS
GILLETTE       HVY RAIN  45  43  93 NW21G26   29.74R FOG
SHERIDAN       SUNNY     54  33  45 NW10      29.71S
BUFFALO WY     CLOUDY    46  38  73 N6        29.74R
CODY           PTSUNNY   48  31  51 W12G22    29.76R
YELLOWSTONE LA   N/A     29  28  96 NW9       29.83S WCI  20
IDAHO FALLS    PTSUNNY   52  32  46 SW29G41   29.84R
SALMON         CLOUDY    55  33  43 W15G24    29.75S
BOISE          PTSUNNY   59  34  39 W8        29.87F
SPOKANE        TSTM      49  44  83 S12G21    29.69F
$$

REGIONAL REPORTS...ALBERTA

CITY           SKY/WX    TMP DP  RH WIND       PRES   REMARKS
EDMONTON       CLOUDY    41  37  87 W14G25    29.42R
CALGARY        MOSUNNY   55  14  19 W15G25    29.48S
LETHBRIDGE     PTSUNNY   55  25  30 SW21G30   29.52S
MEDICINE HAT   MOSUNNY   61  28  29 W10       29.52S
$$

REGIONAL REPORTS...SASKATCHEWAN

CITY           SKY/WX    TMP DP  RH WIND       PRES   REMARKS
SWIFT CURRENT  MOSUNNY   55  34  44 NW24      29.50R
REGINA         PTSUNNY   57  45  62 W21G26    29.44R
SASKATOON      CLOUDY    50  46  87 W14       29.43R
$$



USA.gov is the U.S. government's official web portal to all federal, state and local government web resources and services.